Temp
18 17 16 16 17 16 15 16 15 16 15 15 15 15 16 16 15 16 16 16 15 15 14 14 14 14 13
17 17 15 14 14 14 14 14 14 15 15 15 15 15 14 14 14 15 14 14 14 14 13 13 13 13 12
15 15 16 15 14 13 13 13 13 14 15 15 15 14 14 14 13 13 14 14 14 13 13 12 13 11 11
14 14 14 14 15 14 13 13 13 13 13 13 13 13 13 13 13 13 13 13 13 12 12 12 12 11 11
13 14 14 12 13 13 13 13 13 12 12 12 12 12 12 12 12 12 12 12 12 12 12 11 10 10 9
14 14 14 13 13 13 12 9 10 10 10 9 10 9 9 10 10 11 11 11 11 10 10 9 8 8 8
13 14 14 14 13 12 12 11 10 9 9 6 7 7 7 7 8 9 9 9 9 9 8 8 8 7 8
10 10 10 12 12 12 11 8 7 7 7 5 6 6 5 6 7 7 8 8 8 6 6 7 7 7 7
5 5 7 8 8 9 8 7 6 5 6 6 5 5 5 5 6 7 7 7 6 5 5 6 6 6 6
5 6 7 7 7 7 7 5 4 3 5 5 5 5 4 4 4 5 5 5 5 5 5 5 5 4 4
2 2 3 5 5 5 4 6 3 2 3 5 4 4 3 4 4 4 4 4 4 4 4 4 4 4 3
1 -1 -1 0 0 1 3 3 3 2 3 4 3 3 3 3 3 3 3 3 2 3 3 3 3 3 3
-2 -2 -2 -1 -0 0 1 1 1 1 1 1 2 2 2 2 1 2 1 1 1 1 2 2 2 2 2
-2 -2 -1 -1 -1 -1 -1 -1 -1 -1 -1 -0 -0 -0 0 0 -0 -0 -0 -0 0 0 0 -0 -0 1 1
-2 -2 -2 -2 -2 -2 -2 -1 -1 -1 -1 -1 -1 -1 -2 -2 -2 -2 -1 -1 -1 -1 -1 -1 -1 -0 -1
-3 -3 -3 -3 -3 -3 -2 -2 -2 -2 -2 -2 -2 -2 -1 -0 -1 -1 -1 -1 -1 -1 -2 -1 -2 -1 -1
-3 -3 -3 -3 -3 -3 -3 -3 -2 -3 -3 -3 -2 -2 -5 -4 -1 -1 -2 -2 -2 -2 -1 -1 -1 -1 -1
Height
697 699 701 702 704 707 708 708 712 713 714 718 721 722 719 720 727 730 733 737 739 742 745 749 751 754 756
691 692 694 696 699 700 700 701 703 704 707 710 712 713 715 714 720 722 725 728 731 734 738 742 744 746 749
683 686 688 690 692 693 694 695 695 697 700 702 704 705 705 706 710 712 715 720 724 727 730 734 736 739 741
677 679 682 683 685 687 687 688 689 690 692 695 695 698 697 697 701 703 705 710 715 718 722 726 730 732 734
672 674 675 677 677 679 681 682 683 685 687 687 688 690 688 687 691 695 697 700 707 713 716 721 724 726 728
666 667 667 670 672 673 675 678 681 680 681 682 684 685 686 684 688 691 693 699 703 707 711 716 719 722 724
663 661 662 663 665 668 669 673 673 674 677 679 680 683 686 685 686 688 692 696 701 705 709 712 716 719 721
656 656 655 657 659 660 663 666 669 671 674 678 679 682 686 685 687 690 694 697 702 706 708 711 713 715 717
654 652 649 651 655 656 657 660 669 671 670 674 678 682 687 687 687 690 694 699 703 707 707 711 711 712 713
652 651 653 656 657 659 660 662 669 671 672 674 679 682 686 689 691 693 695 698 701 707 707 708 709 710 711
657 657 659 656 658 662 665 663 672 675 675 674 678 679 684 690 693 694 694 699 702 705 707 707 708 707 707
664 667 666 662 666 670 670 670 673 675 678 681 683 685 686 689 692 694 695 697 700 701 703 707 705 704 703
670 671 670 670 673 674 674 675 681 683 684 684 686 687 689 691 693 693 696 698 697 696 699 706 704 701 700
674 674 674 675 677 679 681 684 687 688 689 689 689 691 691 692 694 695 696 697 696 697 700 702 701 698 698
678 678 680 682 684 685 686 687 688 691 691 691 692 692 693 693 695 696 696 696 696 697 699 697 696 696 694
681 682 684 686 687 688 689 689 690 691 692 692 691 691 691 692 693 694 695 695 695 695 695 694 693 692 690
685 686 687 688 690 691 692 692 692 692 692 692 693 692 692 694 692 692 692 692 692 691 690 689 688 687 687
Wind_Speed
24 24 30 33 34 36 37 36 37 35 35 40 40 37 35 32 31 35 35 36 33 29 27 25 23 24 25
23 23 25 25 31 32 38 39 37 37 36 37 36 35 35 33 35 34 32 36 33 30 29 27 25 23 25
18 19 25 25 24 28 29 33 35 37 35 36 37 38 38 38 42 41 36 34 33 32 28 26 26 24 24
17 17 21 24 28 24 18 25 27 30 31 33 34 38 36 35 37 40 41 39 38 30 26 25 23 21 21
14 17 17 10 15 17 22 19 25 27 27 27 27 28 30 29 31 34 35 30 24 22 19 20 18 17 14
17 14 19 22 21 21 20 6 3 17 20 15 13 14 15 19 20 19 18 17 16 14 14 15 13 13 14
23 20 18 21 22 19 21 18 12 11 18 6 13 11 10 11 12 11 10 10 10 11 12 12 12 13 13
21 16 16 19 22 25 23 15 12 12 11 4 9 10 8 9 8 7 6 7 9 10 10 11 13 13 12
17 15 11 8 11 14 16 16 2 2 4 5 6 11 6 7 5 5 5 6 7 7 9 11 11 12 12
25 24 23 21 20 15 12 14 4 3 6 5 5 4 4 5 7 10 10 9 6 5 6 7 8 10 12
22 22 22 24 22 18 16 16 7 5 4 5 5 6 5 5 5 7 6 3 3 3 6 8 9 10 11
20 18 19 23 20 16 15 16 13 13 8 5 5 3 4 3 3 6 1 3 5 7 7 9 9 11 12
14 16 19 17 14 16 15 14 12 11 8 7 6 5 5 4 2 3 4 3 8 7 8 10 9 9 10
15 15 16 17 18 14 14 11 10 13 12 11 8 3 2 2 2 3 5 4 3 8 12 13 12 11 12
15 15 15 14 15 12 13 12 11 6 9 11 9 8 4 2 3 5 7 9 10 11 12 15 15 16 16
13 12 10 9 9 11 11 10 8 6 5 6 9 7 4 4 5 4 5 6 8 9 10 13 14 13 13
11 9 8 8 7 6 6 6 6 5 5 5 6 4 1 1 6 5 9 13 18 17 15 15 17 20 19
Wind_Direction
242 232 231 234 234 235 233 231 238 240 239 239 250 251 247 245 251 245 239 230 229 228 230 236 249 262 264
244 244 229 231 239 238 233 232 244 248 245 246 248 251 248 247 246 245 235 227 223 224 229 240 250 255 254
240 241 247 245 233 235 234 242 247 250 253 257 257 255 253 254 255 236 226 231 229 228 233 242 256 248 246
243 242 247 249 241 233 223 228 238 252 255 258 259 262 263 262 259 242 229 224 220 219 233 249 248 247 248
242 238 235 220 216 227 230 229 239 241 245 249 258 262 260 254 247 232 207 200 211 229 236 241 240 238 227
246 242 239 235 232 228 228 181 247 233 227 209 200 184 178 175 179 186 199 210 212 222 227 233 218 213 210
263 253 255 243 229 223 217 222 216 201 193 160 172 157 169 158 161 170 182 192 202 210 201 198 202 210 219
246 239 248 257 232 228 219 189 158 159 164 114 146 127 129 125 129 135 154 175 190 187 192 192 199 213 228
119 132 165 188 208 207 163 144 114 119 91 122 131 121 117 105 117 142 158 175 181 194 195 208 218 229 239
99 96 96 97 93 102 109 98 107 63 39 94 120 128 93 81 110 113 114 122 143 186 204 218 231 245 257
82 81 79 77 73 72 72 88 67 82 67 103 130 123 104 138 136 130 125 130 165 224 255 255 256 252 250
83 68 67 72 70 68 73 72 79 99 91 89 106 99 111 107 124 135 103 296 295 297 290 283 276 270 262
70 65 69 73 78 73 71 78 78 75 74 86 102 125 115 108 92 47 0 325 284 274 298 284 292 295 286
82 77 73 66 67 66 68 79 72 52 52 50 53 96 136 194 251 284 287 310 288 297 292 288 292 295 289
79 77 73 70 63 64 68 72 76 51 39 32 29 24 13 314 304 270 280 292 295 296 297 297 295 291 291
81 79 78 77 72 63 68 73 81 68 49 16 14 22 359 310 262 273 317 303 306 303 304 302 302 309 301
93 90 92 86 83 77 70 67 66 52 32 16 7 1 27 3 343 283 3 327 316 306 299 296 292 295 301